Starlink 5849

operational
NORAD ID: 55924 Int'l Des: 2023-037 Owner: SPXS Country: US Constellation: starlink
LEOCIRCULAR

About Starlink 5849

Description loading...

Live Position

Loading 3D Globe...

Upcoming Passes

Altitude History

Altitude vs Time

uPlot chart will show altitude changes over time

Two-Line Element Set

1 55924U 23037L 25348.82229425 .00000726 00000-0 68671-4 0 9993
2 55924 69.9996 138.6060 0003418 268.3700 91.7067 14.98327848151260
Epoch: Dec 14, 2025 • Age: 14 hours

Current Status

Altitude 583.6 km
Velocity 7.57 km/s
Sub-Earth Point -35.64°S, 112.03°W
Launch Date Mar 17, 2023
Age 2.7 years
Type internet

Technical Details

Classification Payload
Mass 305.00 kg
Dry Mass 290.00 kg
Total Mass 305.00 kg
Length 0.20 m
Diameter 2.80 m
Span 9.00 m
Shape Box + pan
Manufacturer SPXS
Bus Type Starlink
Phase Status In Orbit
Owner/State SPXS/US

Large Constellations

Loading constellations...